| time (UTC) | temp F | wind direction | speed knots | gust knots | rain 1hr in | rain 24hr in | rain mn in | humidity % | barometer mb |
| 20260510061004 | 72 | 31 | 2.6 | 8.7 | 0.00 | 0.00 | 0.00 | 39 | 1023.5 |
| 20260510060004 | 72 | 64 | 3.5 | 7.8 | 0.00 | 0.00 | 0.00 | 39 | 1023.6 |
| 20260510055025 | 73 | 44 | 1.7 | 4.3 | 0.00 | 0.00 | 0.00 | 39 | 1023.6 |
| 20260510054004 | 73 | 339 | 1.7 | 3.5 | 0.00 | 0.00 | 0.00 | 39 | 1023.7 |
| 20260510053004 | 72 | 5 | 1.7 | 5.2 | 0.00 | 0.00 | 0.00 | 41 | 1023.8 |
| 20260510052003 | 72 | 1 | 3.5 | 10.4 | 0.00 | 0.00 | 0.00 | 39 | 1023.9 |
| 20260510051004 | 72 | 36 | 2.6 | 10.4 | 0.00 | 0.00 | 0.00 | 39 | 1024.0 |
| 20260510050004 | 72 | 5 | 3.5 | 11.3 | 0.00 | 0.00 | 0.00 | 40 | 1024.1 |
| 20260510045004 | 72 | 7 | 3.5 | 8.7 | 0.00 | 0.00 | 0.00 | 41 | 1024.2 |
| 20260510044004 | 71 | 350 | 3.5 | 9.6 | 0.00 | 0.00 | 0.00 | 40 | 1024.3 |
| 20260510043004 | 71 | 12 | 2.6 | 6.1 | 0.00 | 0.00 | 0.00 | 42 | 1024.5 |
| 20260510042004 | 71 | 357 | 2.6 | 6.1 | 0.00 | 0.00 | 0.00 | 43 | 1024.6 |
| 20260510041004 | 70 | 21 | 2.6 | 7.8 | 0.00 | 0.00 | 0.00 | 44 | 1024.9 |
| 20260510040025 | 70 | 14 | 4.3 | 8.7 | 0.00 | 0.00 | 0.00 | 42 | 1025.0 |
| 20260510035025 | 70 | 8 | 1.7 | 7.0 | 0.00 | 0.00 | 0.00 | 46 | 1025.2 |
| 20260510034004 | 69 | 20 | 3.5 | 7.8 | 0.00 | 0.00 | 0.00 | 46 | 1025.4 |
| 20260510033025 | 68 | 9 | 3.5 | 8.7 | 0.00 | 0.00 | 0.00 | 47 | 1025.4 |
| 20260510032004 | 68 | 4 | 3.5 | 9.6 | 0.00 | 0.00 | 0.00 | 50 | 1025.5 |
| 20260510031003 | 67 | 13 | 4.3 | 10.4 | 0.00 | 0.00 | 0.00 | 50 | 1025.7 |
| 20260510030025 | 67 | 19 | 3.5 | 9.6 | 0.00 | 0.00 | 0.00 | 50 | 1025.8 |
| 20260510025003 | 66 | 56 | 3.5 | 8.7 | 0.00 | 0.00 | 0.00 | 52 | 1025.9 |
| 20260510024004 | 66 | 43 | 2.6 | 7.0 | 0.00 | 0.00 | 0.00 | 53 | 1026.1 |
| 20260510023003 | 64 | 50 | 3.5 | 9.6 | 0.00 | 0.00 | 0.00 | 54 | 1026.3 |
| 20260510022024 | 64 | 51 | 1.7 | 9.6 | 0.00 | 0.00 | 0.00 | 55 | 1026.3 |
| 20260510021003 | 63 | 52 | 2.6 | 7.8 | 0.00 | 0.00 | 0.00 | 57 | 1026.5 |
| 20260510020004 | 62 | 42 | 2.6 | 7.8 | 0.00 | 0.00 | 0.00 | 57 | 1026.7 |
| 20260510015003 | 62 | 35 | 2.6 | 6.1 | 0.00 | 0.00 | 0.00 | 59 | 1026.7 |
| 20260510014003 | 61 | 27 | 2.6 | 7.8 | 0.00 | 0.00 | 0.00 | 59 | 1026.8 |
| 20260510013024 | 60 | 68 | 2.6 | 8.7 | 0.00 | 0.00 | 0.00 | 61 | 1026.8 |
| 20260510012003 | 60 | 39 | 2.6 | 7.0 | 0.00 | 0.00 | 0.00 | 61 | 1026.7 |
| 20260510011003 | 58 | 73 | 1.7 | 6.1 | 0.00 | 0.00 | 0.00 | 64 | 1026.7 |
| 20260510010005 | 57 | 41 | 2.6 | 8.7 | 0.00 | 0.00 | 0.00 | 66 | 1026.8 |
| 20260510005003 | 55 | 56 | 2.6 | 9.6 | 0.00 | 0.00 | 0.00 | 69 | 1026.7 |
| 20260510004024 | 54 | 49 | 1.7 | 8.7 | 0.00 | 0.00 | 0.00 | 73 | 1026.7 |
| 20260510003004 | 52 | 146 | 1.7 | 4.3 | 0.00 | 0.00 | 0.00 | 73 | 1026.7 |
| 20260510002004 | 52 | 128 | 1.7 | 5.2 | 0.00 | 0.00 | 0.00 | 74 | 1026.8 |
| 20260510001003 | 51 | 96 | 0.9 | 4.3 | 0.00 | 0.00 | 0.00 | 74 | 1026.7 |
| 20260510000004 | 51 | 116 | 0.9 | 5.2 | 0.00 | 0.00 | 0.00 | 74 | 1026.8 |
| 20260509235024 | 51 | 177 | 0.0 | 3.5 | 0.00 | 0.00 | 0.00 | 74 | 1026.8 |
| 20260509234003 | 50 | 164 | 0.9 | 3.5 | 0.00 | 0.00 | 0.00 | 74 | 1026.8 |
| 20260509233003 | 50 | 84 | 0.0 | 1.7 | 0.00 | 0.00 | 0.00 | 74 | 1026.7 |
| 20260509232003 | 50 | 84 | 0.0 | 1.7 | 0.00 | 0.00 | 0.00 | 73 | 1026.5 |
| 20260509231003 | 50 | 84 | 0.0 | 1.7 | 0.00 | 0.00 | 0.00 | 73 | 1026.4 |
| 20260509230024 | 51 | 88 | 0.0 | 4.3 | 0.00 | 0.00 | 0.00 | 73 | 1026.5 |
| 20260509225004 | 51 | 114 | 0.0 | 3.5 | 0.00 | 0.00 | 0.00 | 73 | 1026.5 |
| 20260509224004 | 51 | 115 | 0.0 | 0.9 | 0.00 | 0.00 | 0.00 | 72 | 1026.6 |
| 20260509223004 | 51 | 97 | 0.0 | 5.2 | 0.00 | 0.00 | 0.00 | 72 | 1026.5 |
| 20260509222004 | 51 | 69 | 0.9 | 3.5 | 0.00 | 0.00 | 0.00 | 72 | 1026.3 |
| 20260509221003 | 51 | 138 | 0.9 | 5.2 | 0.00 | 0.00 | 0.00 | 72 | 1026.1 |
| 20260509220004 | 51 | 38 | 0.9 | 2.6 | 0.00 | 0.00 | 0.00 | 72 | 1026.1 |
| 20260509215003 | 51 | 85 | 0.9 | 6.1 | 0.00 | 0.00 | 0.00 | 72 | 1026.1 |
| 20260509214004 | 51 | 85 | 0.9 | 3.5 | 0.00 | 0.00 | 0.00 | 72 | 1026.0 |
| 20260509213004 | 51 | 92 | 0.9 | 4.3 | 0.00 | 0.00 | 0.00 | 72 | 1026.0 |
| 20260509212004 | 51 | 119 | 0.9 | 4.3 | 0.00 | 0.00 | 0.00 | 72 | 1026.0 |
| 20260509211004 | 51 | 95 | 0.9 | 3.5 | 0.00 | 0.00 | 0.00 | 72 | 1025.9 |
| 20260509210004 | 51 | 144 | 0.9 | 4.3 | 0.00 | 0.00 | 0.00 | 72 | 1025.9 |
| 20260509205004 | 51 | 160 | 0.9 | 3.5 | 0.00 | 0.00 | 0.00 | 72 | 1025.9 |
| 20260509204004 | 51 | 175 | 0.9 | 5.2 | 0.00 | 0.00 | 0.00 | 71 | 1025.6 |
| 20260509203004 | 51 | 226 | 0.9 | 2.6 | 0.00 | 0.00 | 0.00 | 70 | 1025.5 |
| 20260509202003 | 51 | 226 | 1.7 | 2.6 | 0.00 | 0.00 | 0.00 | 69 | 1025.4 |
| 20260509201025 | 52 | 226 | 0.9 | 2.6 | 0.00 | 0.00 | 0.00 | 69 | 1025.5 |
| 20260509200004 | 52 | 72 | 0.9 | 3.5 | 0.00 | 0.00 | 0.00 | 69 | 1025.4 |
| 20260509195004 | 52 | 171 | 0.9 | 3.5 | 0.00 | 0.00 | 0.00 | 69 | 1025.5 |
| 20260509194003 | 52 | 159 | 0.9 | 3.5 | 0.00 | 0.00 | 0.00 | 68 | 1025.5 |
| 20260509193003 | 52 | 136 | 0.9 | 3.5 | 0.00 | 0.00 | 0.00 | 68 | 1025.5 |
| 20260509192003 | 52 | 72 | 0.9 | 3.5 | 0.00 | 0.00 | 0.00 | 68 | 1025.5 |
| 20260509191004 | 52 | 112 | 0.9 | 2.6 | 0.00 | 0.00 | 0.00 | 68 | 1025.5 |
| 20260509190004 | 52 | 135 | 0.9 | 5.2 | 0.00 | 0.00 | 0.00 | 68 | 1025.6 |
| 20260509185004 | 52 | 152 | 0.9 | 5.2 | 0.00 | 0.00 | 0.00 | 68 | 1025.5 |
| 20260509184004 | 52 | 94 | 1.7 | 5.2 | 0.00 | 0.00 | 0.00 | 68 | 1025.6 |
| 20260509183025 | 52 | 72 | 0.9 | 6.1 | 0.00 | 0.00 | 0.00 | 68 | 1025.5 |
| 20260509182004 | 52 | 93 | 0.0 | 3.5 | 0.00 | 0.00 | 0.00 | 67 | 1025.5 |
| 20260509181004 | 52 | 89 | 0.9 | 2.6 | 0.00 | 0.00 | 0.00 | 67 | 1025.7 |
| 20260509180004 | 51 | 88 | 0.9 | 2.6 | 0.00 | 0.00 | 0.00 | 68 | 1025.7 |
| 20260509175004 | 51 | 88 | 1.7 | 3.5 | 0.00 | 0.00 | 0.00 | 68 | 1025.7 |
| 20260509174003 | 52 | 89 | 1.7 | 2.6 | 0.00 | 0.00 | 0.00 | 66 | 1025.7 |
| 20260509173004 | 52 | 89 | 0.9 | 2.6 | 0.00 | 0.00 | 0.00 | 66 | 1025.7 |
| 20260509172004 | 52 | 90 | 0.9 | 3.5 | 0.00 | 0.00 | 0.00 | 67 | 1025.6 |
| 20260509171004 | 51 | 76 | 0.9 | 5.2 | 0.00 | 0.00 | 0.00 | 68 | 1025.7 |
| 20260509170004 | 51 | 74 | 0.9 | 2.6 | 0.00 | 0.00 | 0.00 | 67 | 1025.7 |
| 20260509165003 | 52 | 74 | 0.9 | 1.7 | 0.00 | 0.00 | 0.00 | 66 | 1025.7 |
| 20260509164003 | 52 | 74 | 0.9 | 2.6 | 0.00 | 0.00 | 0.00 | 66 | 1025.7 |
| 20260509163003 | 52 | 74 | 0.9 | 2.6 | 0.00 | 0.00 | 0.00 | 64 | 1025.7 |
| 20260509162003 | 54 | 76 | 0.9 | 2.6 | 0.00 | 0.00 | 0.00 | 62 | 1025.7 |
| 20260509161003 | 54 | 77 | 0.9 | 2.6 | 0.00 | 0.00 | 0.00 | 61 | 1025.7 |
| 20260509160024 | 54 | 98 | 0.9 | 4.3 | 0.00 | 0.00 | 0.00 | 60 | 1025.7 |
| 20260509155003 | 54 | 100 | 1.7 | 3.5 | 0.00 | 0.00 | 0.00 | 61 | 1025.8 |
| 20260509154003 | 54 | 100 | 0.9 | 2.6 | 0.00 | 0.00 | 0.00 | 62 | 1025.9 |
| 20260509153003 | 53 | 100 | 0.9 | 1.7 | 0.00 | 0.00 | 0.00 | 63 | 1025.8 |
| 20260509152004 | 53 | 100 | 0.9 | 1.7 | 0.00 | 0.00 | 0.00 | 64 | 1025.8 |
| 20260509151004 | 53 | 100 | 0.9 | 1.7 | 0.00 | 0.00 | 0.00 | 64 | 1025.9 |
| 20260509150004 | 53 | 100 | 0.9 | 2.6 | 0.00 | 0.00 | 0.00 | 64 | 1026.0 |
| 20260509145003 | 53 | 100 | 0.9 | 2.6 | 0.00 | 0.00 | 0.00 | 64 | 1026.0 |
| 20260509144003 | 53 | 100 | 1.7 | 2.6 | 0.00 | 0.00 | 0.00 | 64 | 1026.0 |
| 20260509143003 | 53 | 100 | 1.7 | 2.6 | 0.00 | 0.00 | 0.00 | 63 | 1026.0 |
| 20260509142003 | 53 | 101 | 1.7 | 2.6 | 0.00 | 0.00 | 0.00 | 63 | 1026.1 |
| 20260509141003 | 53 | 103 | 1.7 | 2.6 | 0.00 | 0.00 | 0.00 | 63 | 1026.0 |
| 20260509140004 | 53 | 105 | 0.9 | 1.7 | 0.00 | 0.00 | 0.00 | 63 | 1025.9 |
| 20260509135003 | 53 | 105 | 0.9 | 2.6 | 0.00 | 0.00 | 0.00 | 64 | 1025.9 |
| 20260509134003 | 53 | 105 | 0.9 | 2.6 | 0.00 | 0.00 | 0.00 | 64 | 1025.9 |
| 20260509133004 | 53 | 105 | 0.9 | 2.6 | 0.00 | 0.00 | 0.00 | 63 | 1025.9 |
| 20260509132004 | 54 | 105 | 0.9 | 2.6 | 0.00 | 0.00 | 0.00 | 62 | 1025.9 |
| 20260509131004 | 54 | 107 | 0.9 | 2.6 | 0.00 | 0.00 | 0.00 | 62 | 1025.8 |
| 20260509130004 | 54 | 109 | 0.9 | 1.7 | 0.00 | 0.00 | 0.00 | 62 | 1025.8 |
| 20260509125004 | 54 | 109 | 0.9 | 1.7 | 0.00 | 0.00 | 0.00 | 62 | 1025.7 |
| 20260509124004 | 54 | 109 | 0.9 | 2.6 | 0.00 | 0.00 | 0.00 | 62 | 1025.6 |
| 20260509123004 | 54 | 109 | 0.0 | 1.7 | 0.00 | 0.00 | 0.00 | 61 | 1025.6 |
| 20260509122004 | 55 | 109 | 0.0 | 2.6 | 0.00 | 0.00 | 0.00 | 61 | 1025.5 |
| 20260509121004 | 55 | 98 | 0.9 | 3.5 | 0.00 | 0.00 | 0.00 | 61 | 1025.4 |
| 20260509120004 | 55 | 90 | 0.9 | 3.5 | 0.00 | 0.00 | 0.00 | 62 | 1025.5 |
| 20260509115004 | 55 | 88 | 0.9 | 1.7 | 0.00 | 0.00 | 0.00 | 62 | 1025.5 |
| 20260509114004 | 56 | 83 | 0.9 | 4.3 | 0.00 | 0.00 | 0.00 | 61 | 1025.4 |
| 20260509113025 | 56 | 80 | 0.9 | 2.6 | 0.00 | 0.00 | 0.00 | 61 | 1025.4 |
| 20260509112004 | 56 | 82 | 0.9 | 1.7 | 0.00 | 0.00 | 0.00 | 61 | 1025.4 |
| 20260509111004 | 57 | 71 | 0.9 | 3.5 | 0.00 | 0.00 | 0.00 | 59 | 1025.3 |
| 20260509110004 | 57 | 39 | 0.9 | 4.3 | 0.00 | 0.00 | 0.00 | 59 | 1025.4 |
| 20260509105024 | 57 | 25 | 0.0 | 3.5 | 0.00 | 0.00 | 0.00 | 60 | 1025.5 |
| 20260509104004 | 57 | 25 | 0.9 | 2.6 | 0.00 | 0.00 | 0.00 | 60 | 1025.3 |
| 20260509103004 | 57 | 25 | 0.0 | 2.6 | 0.00 | 0.00 | 0.00 | 63 | 1025.3 |
| 20260509102003 | 58 | 25 | 0.9 | 1.7 | 0.00 | 0.00 | 0.00 | 63 | 1025.3 |
| 20260509101004 | 58 | 25 | 0.0 | 0.9 | 0.00 | 0.00 | 0.00 | 61 | 1025.2 |
| 20260509100004 | 59 | 25 | 0.9 | 1.7 | 0.00 | 0.00 | 0.00 | 62 | 1025.2 |
| 20260509095004 | 60 | 25 | 0.9 | 1.7 | 0.00 | 0.00 | 0.00 | 61 | 1025.1 |
| 20260509094004 | 61 | 25 | 1.7 | 2.6 | 0.00 | 0.00 | 0.00 | 59 | 1025.0 |
| 20260509093004 | 63 | 25 | 0.9 | 1.7 | 0.00 | 0.00 | 0.00 | 56 | 1024.9 |
| 20260509092025 | 65 | 25 | 1.7 | 2.6 | 0.00 | 0.00 | 0.00 | 52 | 1024.9 |
| 20260509091004 | 68 | 25 | 1.7 | 2.6 | 0.00 | 0.00 | 0.00 | 48 | 1024.9 |
| 20260509090004 | 69 | 25 | 0.9 | 0.9 | 0.00 | 0.00 | 0.00 | 45 | 1024.8 |
| 20260509085004 | 70 | 25 | 0.9 | 1.7 | 0.00 | 0.00 | 0.00 | 40 | 1024.8 |
| 20260509084004 | 71 | 25 | 0.0 | 3.5 | 0.00 | 0.00 | 0.00 | 38 | 1024.8 |
| 20260509083025 | 72 | 24 | 0.9 | 3.5 | 0.00 | 0.00 | 0.00 | 37 | 1024.7 |
| 20260509082004 | 72 | 28 | 1.7 | 3.5 | 0.00 | 0.00 | 0.00 | 36 | 1024.7 |
| 20260509081004 | 72 | 96 | 1.7 | 7.0 | 0.00 | 0.00 | 0.00 | 35 | 1024.7 |
| 20260509080004 | 72 | 61 | 1.7 | 6.1 | 0.00 | 0.00 | 0.00 | 35 | 1024.7 |
| 20260509075004 | 73 | 19 | 1.7 | 5.2 | 0.00 | 0.00 | 0.00 | 35 | 1024.5 |
| 20260509074003 | 72 | 63 | 0.9 | 3.5 | 0.00 | 0.00 | 0.00 | 36 | 1024.4 |
| 20260509073003 | 72 | 60 | 1.7 | 6.1 | 0.00 | 0.00 | 0.00 | 37 | 1024.3 |
| 20260509072003 | 72 | 88 | 2.6 | 6.1 | 0.00 | 0.00 | 0.00 | 36 | 1024.2 |
| 20260509071003 | 72 | 65 | 2.6 | 8.7 | 0.00 | 0.00 | 0.00 | 37 | 1024.1 |
| 20260509070003 | 72 | 54 | 1.7 | 5.2 | 0.00 | 0.00 | 0.00 | 36 | 1024.0 |
| 20260509065003 | 71 | 31 | 2.6 | 6.1 | 0.00 | 0.00 | 0.00 | 37 | 1024.0 |
| 20260509064003 | 71 | 94 | 2.6 | 9.6 | 0.00 | 0.00 | 0.00 | 38 | 1024.0 |
| 20260509063003 | 71 | 97 | 1.7 | 7.0 | 0.00 | 0.00 | 0.00 | 39 | 1024.0 |
| 20260509062003 | 71 | 65 | 2.6 | 8.7 | 0.00 | 0.00 | 0.00 | 39 | 1024.0 |